Time,TemperatureF,DewpointF,PressureIn,WindDirection,WindDirectionDegrees,WindSpeedMPH,WindSpeedGustMPH,Humidity,HourlyPrecipIn,Conditions,Clouds,dailyrainin,SoftwareType,DateUTC
2013-07-13 00:02:00,56.0,52.0,29.90,SW,236,0.0,0.0,86,0.00,,,0.00,,2013-07-13 07:02:00,
2013-07-13 00:11:00,56.0,52.0,29.90,SW,236,0.0,0.0,86,0.00,,,0.00,,2013-07-13 07:11:00,
2013-07-13 00:22:00,56.0,52.0,29.89,SW,236,0.0,1.0,86,0.00,,,0.00,,2013-07-13 07:22:00,
2013-07-13 00:33:00,56.0,52.0,29.90,SW,236,0.0,1.0,86,0.00,,,0.00,,2013-07-13 07:33:00,
2013-07-13 00:44:00,57.0,53.0,29.89,NW,311,1.0,2.0,86,0.00,,,0.00,,2013-07-13 07:44:00,
2013-07-13 00:53:00,58.0,54.0,29.89,NNW,348,1.0,3.0,85,0.00,,,0.00,,2013-07-13 07:53:00,
2013-07-13 01:01:00,57.0,52.0,29.89,ENE,78,0.0,2.0,83,0.00,,,0.00,,2013-07-13 08:01:00,
2013-07-13 01:11:00,57.0,52.0,29.89,ENE,78,0.0,1.0,83,0.00,,,0.00,,2013-07-13 08:11:00,
2013-07-13 01:33:00,55.0,51.0,29.89,ENE,78,0.0,0.0,85,0.00,,,0.00,,2013-07-13 08:33:00,
2013-07-13 01:43:00,55.0,51.0,29.89,ENE,78,0.0,0.0,86,0.00,,,0.00,,2013-07-13 08:43:00,
2013-07-13 01:52:00,54.0,50.0,29.89,ENE,78,0.0,0.0,87,0.00,,,0.00,,2013-07-13 08:52:00,
2013-07-13 02:02:00,54.0,51.0,29.89,ENE,78,0.0,0.0,88,0.00,,,0.00,,2013-07-13 09:02:00,
2013-07-13 02:11:00,54.0,51.0,29.89,ENE,78,0.0,0.0,88,0.00,,,0.00,,2013-07-13 09:11:00,
2013-07-13 02:22:00,53.0,50.0,29.89,ENE,78,0.0,0.0,89,0.00,,,0.00,,2013-07-13 09:22:00,
2013-07-13 02:32:00,53.0,50.0,29.89,ENE,78,0.0,0.0,91,0.00,,,0.00,,2013-07-13 09:32:00,
2013-07-13 02:42:00,54.0,52.0,29.89,ENE,78,0.0,0.0,92,0.00,,,0.00,,2013-07-13 09:42:00,
2013-07-13 02:53:00,54.0,51.0,29.89,ENE,78,0.0,1.0,91,0.00,,,0.00,,2013-07-13 09:53:00,
2013-07-13 03:01:00,54.0,52.0,29.89,East,79,0.0,2.0,92,0.00,,,0.00,,2013-07-13 10:01:00,
2013-07-13 03:11:00,55.0,53.0,29.90,SSE,160,1.0,4.0,93,0.00,,,0.00,,2013-07-13 10:11:00,
2013-07-13 03:32:00,54.0,52.0,29.90,NE,51,0.0,2.0,93,0.00,,,0.00,,2013-07-13 10:32:00,
2013-07-13 03:42:00,55.0,53.0,29.90,North,355,1.0,3.0,93,0.00,,,0.00,,2013-07-13 10:42:00,
2013-07-13 03:52:00,55.0,52.0,29.89,North,355,0.0,1.0,91,0.00,,,0.00,,2013-07-13 10:52:00,
2013-07-13 04:01:00,54.0,51.0,29.89,West,260,1.0,2.0,91,0.00,,,0.00,,2013-07-13 11:01:00,
2013-07-13 04:11:00,53.0,50.0,29.90,West,260,0.0,0.0,91,0.00,,,0.00,,2013-07-13 11:11:00,
2013-07-13 04:32:00,53.0,51.0,29.90,West,260,0.0,1.0,92,0.00,,,0.00,,2013-07-13 11:32:00,
2013-07-13 04:42:00,52.0,50.0,29.90,West,260,0.0,0.0,92,0.00,,,0.00,,2013-07-13 11:42:00,
2013-07-13 04:52:00,52.0,50.0,29.90,West,260,0.0,0.0,93,0.00,,,0.00,,2013-07-13 11:52:00,
2013-07-13 05:02:00,52.0,50.0,29.90,West,260,0.0,0.0,93,0.00,,,0.00,,2013-07-13 12:02:00,
2013-07-13 05:12:00,52.0,50.0,29.90,West,269,0.0,1.0,93,0.00,,,0.00,,2013-07-13 12:12:00,
2013-07-13 05:32:00,52.0,50.0,29.90,West,269,0.0,2.0,94,0.00,,,0.00,,2013-07-13 12:32:00,
2013-07-13 05:43:00,52.0,50.0,29.90,West,269,0.0,1.0,94,0.00,,,0.00,,2013-07-13 12:43:00,
2013-07-13 05:52:00,52.0,50.0,29.90,West,269,0.0,1.0,94,0.00,,,0.00,,2013-07-13 12:52:00,
2013-07-13 06:43:00,51.0,49.0,29.91,West,269,0.0,0.0,94,0.00,,,0.00,,2013-07-13 13:43:00,
2013-07-13 07:32:00,52.0,51.0,29.93,West,269,0.0,0.0,96,0.00,,,0.00,,2013-07-13 14:32:00,
2013-07-13 07:53:00,52.0,51.0,29.93,West,269,0.0,0.0,96,0.00,,,0.00,,2013-07-13 14:53:00,
2013-07-13 08:02:00,53.0,52.0,29.93,West,269,0.0,1.0,96,0.00,,,0.00,,2013-07-13 15:02:00,
2013-07-13 08:12:00,53.0,52.0,29.94,West,269,0.0,1.0,96,0.00,,,0.00,,2013-07-13 15:12:00,
2013-07-13 08:22:00,54.0,53.0,29.94,West,269,0.0,0.0,96,0.00,,,0.00,,2013-07-13 15:22:00,
2013-07-13 08:33:00,54.0,53.0,29.94,West,269,0.0,0.0,95,0.00,,,0.00,,2013-07-13 15:33:00,
2013-07-13 08:53:00,57.0,55.0,29.94,NE,36,1.0,3.0,92,0.00,,,0.00,,2013-07-13 15:53:00,
2013-07-13 09:01:00,60.0,55.0,29.95,East,93,0.0,3.0,85,0.00,,,0.00,,2013-07-13 16:01:00,
2013-07-13 09:11:00,61.0,56.0,29.95,East,92,0.0,2.0,84,0.00,,,0.00,,2013-07-13 16:11:00,
2013-07-13 09:32:00,64.0,57.0,29.96,SSW,210,1.0,3.0,77,0.00,,,0.00,,2013-07-13 16:32:00,
2013-07-13 09:43:00,65.0,57.0,29.95,East,87,1.0,2.0,76,0.00,,,0.00,,2013-07-13 16:43:00,
2013-07-13 09:53:00,66.0,57.0,29.95,South,185,1.0,4.0,72,0.00,,,0.00,,2013-07-13 16:53:00,
2013-07-13 10:01:00,66.0,57.0,29.95,SW,225,2.0,4.0,74,0.00,,,0.00,,2013-07-13 17:01:00,
2013-07-13 10:11:00,67.0,58.0,29.95,SW,232,2.0,5.0,72,0.00,,,0.00,,2013-07-13 17:11:00,
2013-07-13 10:22:00,68.0,57.0,29.95,SSW,210,1.0,4.0,69,0.00,,,0.00,,2013-07-13 17:22:00,
2013-07-13 10:33:00,69.0,58.0,29.95,SSW,201,1.0,6.0,68,0.00,,,0.00,,2013-07-13 17:33:00,
2013-07-13 10:42:00,70.0,58.0,29.95,WSW,248,1.0,6.0,65,0.00,,,0.00,,2013-07-13 17:42:00,
2013-07-13 10:52:00,70.0,58.0,29.95,SW,234,1.0,4.0,65,0.00,,,0.00,,2013-07-13 17:52:00,
2013-07-13 11:01:00,71.0,58.0,29.95,SW,229,1.0,5.0,64,0.00,,,0.00,,2013-07-13 18:01:00,
2013-07-13 11:11:00,72.0,58.0,29.95,SW,220,2.0,4.0,62,0.00,,,0.00,,2013-07-13 18:11:00,
2013-07-13 11:32:00,74.0,59.0,29.96,SSW,207,3.0,5.0,59,0.00,,,0.00,,2013-07-13 18:32:00,
2013-07-13 11:43:00,75.0,58.0,29.96,South,182,3.0,5.0,56,0.00,,,0.00,,2013-07-13 18:43:00,
2013-07-13 11:52:00,74.0,58.0,29.96,WSW,242,2.0,5.0,58,0.00,,,0.00,,2013-07-13 18:52:00,
2013-07-13 12:02:00,75.0,60.0,29.96,SSE,152,2.0,6.0,59,0.00,,,0.00,,2013-07-13 19:02:00,
2013-07-13 12:11:00,75.0,58.0,29.96,SE,126,2.0,5.0,56,0.00,,,0.00,,2013-07-13 19:11:00,
2013-07-13 12:32:00,77.0,58.0,29.96,South,181,2.0,6.0,52,0.00,,,0.00,,2013-07-13 19:32:00,
2013-07-13 12:44:00,78.0,59.0,29.96,SW,224,2.0,5.0,52,0.00,,,0.00,,2013-07-13 19:44:00,
2013-07-13 12:52:00,78.0,59.0,29.96,SSE,164,3.0,5.0,52,0.00,,,0.00,,2013-07-13 19:52:00,
2013-07-13 13:01:00,79.0,59.0,29.96,SSW,210,3.0,6.0,50,0.00,,,0.00,,2013-07-13 20:01:00,
2013-07-13 13:11:00,79.0,58.0,29.96,SSW,206,2.0,5.0,49,0.00,,,0.00,,2013-07-13 20:11:00,
2013-07-13 13:33:00,81.0,60.0,29.95,NW,309,2.0,6.0,49,0.00,,,0.00,,2013-07-13 20:33:00,
2013-07-13 13:42:00,81.0,59.0,29.95,SSW,200,2.0,5.0,47,0.00,,,0.00,,2013-07-13 20:42:00,
2013-07-13 13:52:00,82.0,59.0,29.95,SSW,202,4.0,8.0,45,0.00,,,0.00,,2013-07-13 20:52:00,
2013-07-13 14:01:00,82.0,59.0,29.95,South,171,3.0,6.0,46,0.00,,,0.00,,2013-07-13 21:01:00,
2013-07-13 14:11:00,82.0,60.0,29.95,SSW,209,3.0,6.0,48,0.00,,,0.00,,2013-07-13 21:11:00,
2013-07-13 14:22:00,83.0,61.0,29.95,SE,130,2.0,6.0,47,0.00,,,0.00,,2013-07-13 21:22:00,
2013-07-13 14:32:00,84.0,60.0,29.94,SSW,200,3.0,8.0,45,0.00,,,0.00,,2013-07-13 21:32:00,
2013-07-13 14:42:00,83.0,60.0,29.94,SSW,212,3.0,7.0,46,0.00,,,0.00,,2013-07-13 21:42:00,
2013-07-13 14:53:00,83.0,59.0,29.94,SSE,152,4.0,8.0,44,0.00,,,0.00,,2013-07-13 21:53:00,
2013-07-13 15:01:00,82.0,58.0,29.94,SSW,209,3.0,8.0,44,0.00,,,0.00,,2013-07-13 22:01:00,
2013-07-13 15:11:00,83.0,58.0,29.94,SSE,160,4.0,8.0,43,0.00,,,0.00,,2013-07-13 22:11:00,
2013-07-13 15:32:00,85.0,58.0,29.94,South,179,1.0,5.0,40,0.00,,,0.00,,2013-07-13 22:32:00,
2013-07-13 15:43:00,85.0,59.0,29.93,South,176,3.0,8.0,41,0.00,,,0.00,,2013-07-13 22:43:00,
2013-07-13 15:53:00,84.0,56.0,29.93,SSE,166,4.0,8.0,39,0.00,,,0.00,,2013-07-13 22:53:00,
2013-07-13 16:01:00,83.0,57.0,29.93,SSE,153,4.0,8.0,41,0.00,,,0.00,,2013-07-13 23:01:00,
2013-07-13 16:11:00,82.0,57.0,29.93,SSE,162,3.0,9.0,42,0.00,,,0.00,,2013-07-13 23:11:00,
2013-07-13 16:32:00,82.0,56.0,29.93,SSW,196,3.0,7.0,41,0.00,,,0.00,,2013-07-13 23:32:00,
2013-07-13 16:42:00,82.0,55.0,29.93,SSE,168,4.0,9.0,39,0.00,,,0.00,,2013-07-13 23:42:00,
2013-07-13 16:52:00,82.0,54.0,29.93,South,186,4.0,9.0,38,0.00,,,0.00,,2013-07-13 23:52:00,
2013-07-13 17:01:00,82.0,53.0,29.93,WSW,238,3.0,6.0,37,0.00,,,0.00,,2013-07-14 00:01:00,
2013-07-13 17:11:00,81.0,53.0,29.93,South,188,3.0,7.0,38,0.00,,,0.00,,2013-07-14 00:11:00,
2013-07-13 17:33:00,81.0,53.0,29.92,SSW,202,4.0,7.0,38,0.00,,,0.00,,2013-07-14 00:33:00,
2013-07-13 17:42:00,80.0,51.0,29.92,ESE,123,2.0,7.0,37,0.00,,,0.00,,2013-07-14 00:42:00,
2013-07-13 17:52:00,80.0,53.0,29.92,SSE,164,3.0,8.0,40,0.00,,,0.00,,2013-07-14 00:52:00,
2013-07-13 18:01:00,79.0,53.0,29.92,South,188,3.0,8.0,41,0.00,,,0.00,,2013-07-14 01:01:00,
2013-07-13 18:11:00,78.0,53.0,29.92,SSE,158,4.0,8.0,42,0.00,,,0.00,,2013-07-14 01:11:00,
2013-07-13 18:21:00,78.0,53.0,29.92,SE,132,3.0,6.0,42,0.00,,,0.00,,2013-07-14 01:21:00,
2013-07-13 18:32:00,77.0,52.0,29.92,SE,140,4.0,8.0,42,0.00,,,0.00,,2013-07-14 01:32:00,
2013-07-13 18:43:00,76.0,52.0,29.92,SE,144,4.0,7.0,43,0.00,,,0.00,,2013-07-14 01:43:00,
2013-07-13 18:52:00,75.0,50.0,29.92,SSE,158,3.0,6.0,42,0.00,,,0.00,,2013-07-14 01:52:00,
2013-07-13 19:01:00,74.0,49.0,29.92,South,172,3.0,8.0,42,0.00,,,0.00,,2013-07-14 02:01:00,
2013-07-13 19:11:00,74.0,50.0,29.92,SSW,194,3.0,5.0,43,0.00,,,0.00,,2013-07-14 02:11:00,
2013-07-13 19:22:00,74.0,51.0,29.92,SE,130,3.0,5.0,45,0.00,,,0.00,,2013-07-14 02:22:00,
2013-07-13 19:32:00,73.0,50.0,29.91,SSE,161,2.0,5.0,44,0.00,,,0.00,,2013-07-14 02:32:00,
2013-07-13 19:42:00,73.0,50.0,29.91,SSE,155,2.0,6.0,44,0.00,,,0.00,,2013-07-14 02:42:00,
2013-07-13 19:53:00,73.0,49.0,29.91,SE,143,2.0,5.0,42,0.00,,,0.00,,2013-07-14 02:53:00,
2013-07-13 20:01:00,72.0,48.0,29.91,SE,144,1.0,4.0,42,0.00,,,0.00,,2013-07-14 03:01:00,
2013-07-13 20:11:00,72.0,49.0,29.91,SE,144,0.0,2.0,44,0.00,,,0.00,,2013-07-14 03:11:00,
2013-07-13 20:22:00,71.0,49.0,29.91,SE,144,0.0,0.0,45,0.00,,,0.00,,2013-07-14 03:22:00,
2013-07-13 20:32:00,70.0,48.0,29.91,SE,144,0.0,1.0,45,0.00,,,0.00,,2013-07-14 03:32:00,
2013-07-13 20:43:00,70.0,48.0,29.91,SE,144,0.0,1.0,45,0.00,,,0.00,,2013-07-14 03:43:00,
2013-07-13 20:53:00,70.0,48.0,29.91,SE,144,0.0,0.0,46,0.00,,,0.00,,2013-07-14 03:53:00,
2013-07-13 21:02:00,69.0,48.0,29.91,SE,144,0.0,0.0,48,0.00,,,0.00,,2013-07-14 04:02:00,
2013-07-13 21:11:00,68.0,49.0,29.91,SE,144,0.0,0.0,51,0.00,,,0.00,,2013-07-14 04:11:00,
2013-07-13 21:22:00,68.0,49.0,29.91,SE,144,0.0,0.0,51,0.00,,,0.00,,2013-07-14 04:22:00,
2013-07-13 21:32:00,67.0,50.0,29.92,SE,144,0.0,0.0,54,0.00,,,0.00,,2013-07-14 04:32:00,
2013-07-13 21:42:00,65.0,49.0,29.92,SE,144,0.0,0.0,56,0.00,,,0.00,,2013-07-14 04:42:00,
2013-07-13 21:53:00,65.0,49.0,29.92,SE,144,0.0,0.0,57,0.00,,,0.00,,2013-07-14 04:53:00,
2013-07-13 22:02:00,64.0,49.0,29.93,SE,144,0.0,0.0,58,0.00,,,0.00,,2013-07-14 05:02:00,
2013-07-13 22:11:00,64.0,49.0,29.93,SE,144,0.0,0.0,58,0.00,,,0.00,,2013-07-14 05:11:00,
2013-07-13 22:32:00,63.0,49.0,29.94,SE,144,0.0,0.0,61,0.00,,,0.00,,2013-07-14 05:32:00,
2013-07-13 22:43:00,63.0,49.0,29.94,SE,144,0.0,0.0,60,0.00,,,0.00,,2013-07-14 05:43:00,
2013-07-13 22:53:00,63.0,49.0,29.94,SE,143,0.0,2.0,60,0.00,,,0.00,,2013-07-14 05:53:00,
2013-07-13 23:01:00,63.0,48.0,29.94,NNW,331,2.0,4.0,57,0.00,,,0.00,,2013-07-14 06:01:00,
2013-07-13 23:11:00,64.0,49.0,29.94,East,89,0.0,4.0,59,0.00,,,0.00,,2013-07-14 06:11:00,
2013-07-13 23:22:00,64.0,49.0,29.94,NNW,339,1.0,3.0,59,0.00,,,0.00,,2013-07-14 06:22:00,
2013-07-13 23:32:00,63.0,49.0,29.94,NW,307,0.0,2.0,60,0.00,,,0.00,,2013-07-14 06:32:00,
2013-07-13 23:42:00,63.0,50.0,29.94,NW,307,0.0,0.0,62,0.00,,,0.00,,2013-07-14 06:42:00,
2013-07-13 23:53:00,62.0,50.0,29.94,NW,307,0.0,1.0,64,0.00,,,0.00,,2013-07-14 06:53:00,